| time (UTC) | temp F | wind direction | speed MPH | gust MPH | rain 1hr in | rain 24hr in | rain mn in | humidity % | barometer mb |
| 20260508200020 | 66 | 159 | 4.0 | 9.0 | 0.00 | 0.00 | 0.00 | 32 | 1017.1 |
| 20260508194513 | 66 | 150 | 3.0 | 8.0 | 0.00 | 0.00 | 0.00 | 33 | 1017.1 |
| 20260508193014 | 65 | 145 | 3.0 | 8.0 | 0.00 | 0.00 | 0.00 | 32 | 1017.3 |
| 20260508191504 | 65 | 127 | 1.0 | 8.0 | 0.00 | 0.00 | 0.00 | 32 | 1017.4 |
| 20260508190007 | 65 | 167 | 1.0 | 7.0 | 0.00 | 0.00 | 0.00 | 33 | 1017.5 |
| 20260508184506 | 64 | 138 | 3.0 | 9.0 | 0.00 | 0.00 | 0.00 | 31 | 1017.5 |
| 20260508183031 | 64 | 180 | 1.0 | 8.0 | 0.00 | 0.00 | 0.00 | 34 | 1017.4 |
| 20260508181547 | 64 | 179 | 3.0 | 9.0 | 0.00 | 0.00 | 0.00 | 33 | 1017.5 |
| 20260508180027 | 64 | 141 | 1.0 | 8.0 | 0.00 | 0.00 | 0.00 | 37 | 1017.5 |
| 20260508174524 | 64 | 121 | 4.0 | 8.0 | 0.00 | 0.00 | 0.00 | 47 | 1017.5 |
| 20260508173034 | 62 | 125 | 0.0 | 1.0 | 0.00 | 0.00 | 0.00 | 44 | 1017.4 |
| 20260508171524 | 59 | 140 | 1.0 | 4.0 | 0.00 | 0.00 | 0.00 | 55 | 1017.4 |
| 20260508170054 | 57 | 82 | 0.0 | 3.0 | 0.00 | 0.00 | 0.00 | 57 | 1017.5 |
| 20260508164557 | 57 | 324 | 1.0 | 4.0 | 0.00 | 0.00 | 0.00 | 59 | 1017.4 |
| 20260508163049 | 56 | 83 | 0.0 | 1.0 | 0.00 | 0.00 | 0.00 | 58 | 1017.5 |
| 20260508161549 | 52 | 135 | 1.0 | 5.0 | 0.00 | 0.00 | 0.00 | 62 | 1017.4 |
| 20260508160045 | 52 | 116 | 1.0 | 6.0 | 0.00 | 0.00 | 0.00 | 61 | 1017.3 |
| 20260508154543 | 53 | 162 | 0.0 | 3.0 | 0.00 | 0.00 | 0.00 | 56 | 1017.1 |
| 20260508153012 | 51 | 150 | 0.0 | 2.0 | 0.00 | 0.00 | 0.00 | 59 | 1017.3 |
| 20260508151511 | 51 | 142 | 0.0 | 3.0 | 0.00 | 0.00 | 0.00 | 60 | 1017.4 |
| 20260508150009 | 51 | 130 | 1.0 | 4.0 | 0.00 | 0.00 | 0.00 | 59 | 1017.3 |
| 20260508144513 | 50 | 96 | 1.0 | 3.0 | 0.00 | 0.00 | 0.00 | 54 | 1017.3 |
| 20260508143018 | 48 | 143 | 0.0 | 2.0 | 0.00 | 0.00 | 0.00 | 60 | 1017.3 |
| 20260508141509 | 45 | 142 | 0.0 | 1.0 | 0.00 | 0.00 | 0.00 | 65 | 1017.3 |
| 20260508140004 | 42 | 300 | 0.0 | 3.0 | 0.00 | 0.00 | 0.00 | 67 | 1017.4 |
| 20260508134501 | 38 | 285 | 0.0 | 2.0 | 0.00 | 0.00 | 0.00 | 70 | 1017.3 |
| 20260508133117 | 38 | 288 | 0.0 | 1.0 | 0.00 | 0.00 | 0.00 | 67 | 1017.2 |
| 20260508131558 | 38 | 325 | 0.0 | 2.0 | 0.00 | 0.00 | 0.00 | 65 | 1017.1 |
| 20260508130053 | 38 | 310 | 0.0 | 2.0 | 0.00 | 0.00 | 0.00 | 63 | 1017.1 |
| 20260508124550 | 39 | 207 | 0.0 | 2.0 | 0.00 | 0.00 | 0.00 | 58 | 1016.8 |
| 20260508123054 | 40 | 132 | 0.0 | 1.0 | 0.00 | 0.00 | 0.00 | 55 | 1016.7 |
| 20260508121551 | 41 | 215 | 0.0 | 1.0 | 0.00 | 0.00 | 0.00 | 52 | 1016.6 |
| 20260508120042 | 44 | 74 | 0.0 | 3.0 | 0.00 | 0.00 | 0.00 | 49 | 1016.7 |
| 20260508114540 | 43 | 271 | 2.0 | 4.0 | 0.00 | 0.00 | 0.00 | 50 | 1016.4 |
| 20260508113036 | 42 | 307 | 0.0 | 3.0 | 0.00 | 0.00 | 0.00 | 52 | 1016.4 |
| 20260508111534 | 43 | 288 | 0.0 | 3.0 | 0.00 | 0.00 | 0.00 | 52 | 1016.3 |
| 20260508110035 | 43 | 260 | 0.0 | 1.0 | 0.00 | 0.00 | 0.00 | 48 | 1016.4 |
| 20260508104527 | 45 | 259 | 1.0 | 3.0 | 0.00 | 0.00 | 0.00 | 47 | 1016.3 |
| 20260508103024 | 47 | 302 | 0.0 | 2.0 | 0.00 | 0.00 | 0.00 | 47 | 1016.2 |
| 20260508101523 | 46 | 302 | 1.0 | 5.0 | 0.00 | 0.00 | 0.00 | 50 | 1016.2 |
| 20260508100025 | 46 | 311 | 0.0 | 5.0 | 0.00 | 0.00 | 0.00 | 53 | 1016.2 |
| 20260508094521 | 46 | 309 | 2.0 | 5.0 | 0.00 | 0.00 | 0.00 | 54 | 1016.2 |
| 20260508093022 | 46 | 309 | 3.0 | 7.0 | 0.00 | 0.00 | 0.00 | 57 | 1016.2 |
| 20260508091524 | 45 | 300 | 3.0 | 5.0 | 0.00 | 0.00 | 0.00 | 58 | 1016.2 |
| 20260508090016 | 47 | 306 | 2.0 | 5.0 | 0.00 | 0.00 | 0.00 | 55 | 1016.4 |
| 20260508084510 | 47 | 296 | 2.0 | 5.0 | 0.00 | 0.00 | 0.00 | 55 | 1016.4 |
| 20260508083005 | 48 | 305 | 2.0 | 5.0 | 0.00 | 0.00 | 0.00 | 54 | 1016.3 |
| 20260508081502 | 49 | 308 | 1.0 | 4.0 | 0.00 | 0.00 | 0.00 | 52 | 1016.3 |
| 20260508080059 | 49 | 300 | 0.0 | 3.0 | 0.00 | 0.00 | 0.00 | 51 | 1016.2 |
| 20260508074558 | 50 | 300 | 1.0 | 4.0 | 0.00 | 0.00 | 0.00 | 51 | 1016.1 |
| 20260508073056 | 49 | 309 | 2.0 | 5.0 | 0.00 | 0.00 | 0.00 | 52 | 1015.9 |
| 20260508071529 | 50 | 316 | 3.0 | 8.0 | 0.00 | 0.00 | 0.00 | 53 | 1016.0 |
| 20260508070028 | 50 | 312 | 3.0 | 7.0 | 0.00 | 0.00 | 0.00 | 54 | 1015.9 |
| 20260508064520 | 51 | 311 | 1.0 | 4.0 | 0.00 | 0.00 | 0.00 | 53 | 1015.9 |
| 20260508063018 | 54 | 269 | 0.0 | 5.0 | 0.00 | 0.00 | 0.00 | 47 | 1015.7 |
| 20260508061520 | 53 | 260 | 3.0 | 5.0 | 0.00 | 0.00 | 0.00 | 50 | 1015.7 |
| 20260508060013 | 53 | 297 | 1.0 | 4.0 | 0.00 | 0.00 | 0.00 | 50 | 1015.5 |
| 20260508054510 | 54 | 258 | 2.0 | 4.0 | 0.00 | 0.00 | 0.00 | 50 | 1015.5 |
| 20260508053010 | 54 | 255 | 1.0 | 6.0 | 0.00 | 0.00 | 0.00 | 51 | 1015.5 |
| 20260508051520 | 54 | 254 | 2.0 | 6.0 | 0.00 | 0.00 | 0.00 | 53 | 1015.5 |
| 20260508050010 | 54 | 265 | 1.0 | 4.0 | 0.00 | 0.00 | 0.00 | 52 | 1015.6 |
| 20260508044556 | 54 | 305 | 1.0 | 4.0 | 0.00 | 0.00 | 0.00 | 52 | 1015.6 |
| 20260508043044 | 56 | 265 | 0.0 | 4.0 | 0.00 | 0.00 | 0.00 | 51 | 1015.5 |
| 20260508041535 | 56 | 303 | 0.0 | 3.0 | 0.00 | 0.00 | 0.00 | 50 | 1015.5 |
| 20260508040037 | 56 | 308 | 1.0 | 7.0 | 0.00 | 0.00 | 0.00 | 53 | 1015.5 |
| 20260508034543 | 56 | 315 | 3.0 | 5.0 | 0.00 | 0.00 | 0.00 | 54 | 1015.3 |
| 20260508033034 | 57 | 306 | 2.0 | 6.0 | 0.00 | 0.00 | 0.00 | 56 | 1015.1 |
| 20260508031531 | 58 | 294 | 3.0 | 4.0 | 0.00 | 0.00 | 0.00 | 55 | 1015.0 |
| 20260508030037 | 61 | 317 | 1.0 | 2.0 | 0.00 | 0.00 | 0.00 | 47 | 1014.9 |
| 20260508024536 | 64 | 148 | 0.0 | 0.0 | 0.00 | 0.00 | 0.00 | 41 | 1014.8 |
| 20260508023032 | 65 | 149 | 0.0 | 2.0 | 0.00 | 0.00 | 0.00 | 38 | 1014.7 |
| 20260508021527 | 67 | 93 | 4.0 | 8.0 | 0.00 | 0.00 | 0.00 | 35 | 1014.6 |
| 20260508020027 | 68 | 93 | 4.0 | 9.0 | 0.00 | 0.00 | 0.00 | 37 | 1014.6 |
| 20260508014527 | 69 | 96 | 0.0 | 7.0 | 0.00 | 0.00 | 0.00 | 40 | 1014.6 |
| 20260508013026 | 69 | 69 | 3.0 | 5.0 | 0.00 | 0.00 | 0.00 | 40 | 1014.5 |
| 20260508011535 | 69 | 92 | 1.0 | 7.0 | 0.00 | 0.00 | 0.00 | 39 | 1014.5 |
| 20260508010024 | 70 | 105 | 2.0 | 8.0 | 0.00 | 0.00 | 0.00 | 35 | 1014.5 |
| 20260508004526 | 71 | 150 | 4.0 | 9.0 | 0.00 | 0.00 | 0.00 | 30 | 1014.5 |
| 20260508003023 | 71 | 132 | 3.0 | 11.0 | 0.00 | 0.00 | 0.00 | 29 | 1014.5 |
| 20260508001552 | 72 | 119 | 6.0 | 12.0 | 0.00 | 0.00 | 0.00 | 27 | 1014.4 |
| 20260508000050 | 71 | 148 | 3.0 | 11.0 | 0.00 | 0.00 | 0.00 | 29 | 1014.4 |
| 20260507234558 | 71 | 128 | 5.0 | 15.0 | 0.00 | 0.00 | 0.00 | 28 | 1014.5 |
| 20260507233047 | 71 | 157 | 8.0 | 15.0 | 0.00 | 0.00 | 0.00 | 28 | 1014.5 |
| 20260507231551 | 71 | 133 | 5.0 | 13.0 | 0.00 | 0.00 | 0.00 | 32 | 1014.5 |
| 20260507230046 | 70 | 144 | 8.0 | 13.0 | 0.00 | 0.00 | 0.00 | 32 | 1014.6 |
| 20260507224538 | 70 | 160 | 6.0 | 13.0 | 0.00 | 0.00 | 0.00 | 33 | 1014.7 |
| 20260507223035 | 70 | 144 | 8.0 | 12.0 | 0.00 | 0.00 | 0.00 | 33 | 1014.9 |
| 20260507221533 | 69 | 144 | 6.0 | 13.0 | 0.00 | 0.00 | 0.00 | 36 | 1015.1 |
| 20260507220030 | 69 | 156 | 5.0 | 11.0 | 0.00 | 0.00 | 0.00 | 41 | 1015.2 |
| 20260507214601 | 69 | 150 | 7.0 | 12.0 | 0.00 | 0.00 | 0.00 | 39 | 1015.4 |
| 20260507213100 | 69 | 153 | 5.0 | 12.0 | 0.00 | 0.00 | 0.00 | 40 | 1015.6 |
| 20260507211523 | 68 | 163 | 3.0 | 10.0 | 0.00 | 0.00 | 0.00 | 39 | 1015.8 |
| 20260507210022 | 68 | 202 | 1.0 | 3.0 | 0.00 | 0.00 | 0.00 | 38 | 1015.8 |
| 20260507204518 | 68 | 202 | 6.0 | 15.0 | 0.00 | 0.00 | 0.00 | 39 | 1016.0 |
| 20260507203016 | 68 | 169 | 1.0 | 9.0 | 0.00 | 0.00 | 0.00 | 39 | 1016.1 |
| 20260507201516 | 68 | 102 | 3.0 | 12.0 | 0.00 | 0.00 | 0.00 | 40 | 1016.2 |